TimeEST,TemperatureF,Dew PointF,Humidity,Sea Level PressureIn,VisibilityMPH,Wind Direction,Wind SpeedMPH,Gust SpeedMPH,PrecipitationIn,Events,Conditions,WindDirDegrees,DateUTC
12:15 AM,35.8,18.1,49,30.31,10.0,NNE,5.8,-,N/A,,Clear,20,2013-02-22 05:15:00
12:35 AM,35.1,18.1,50,30.32,10.0,North,3.5,-,N/A,,Clear,350,2013-02-22 05:35:00
12:55 AM,35.1,18.3,51,30.32,10.0,North,3.5,-,N/A,,Clear,360,2013-02-22 05:55:00
1:15 AM,35.1,18.9,52,30.30,10.0,NNE,6.9,-,N/A,,Clear,20,2013-02-22 06:15:00
1:35 AM,35.1,20.3,55,30.32,10.0,North,5.8,-,N/A,,Clear,360,2013-02-22 06:35:00
1:55 AM,35.1,19.4,53,30.32,10.0,North,4.6,-,N/A,,Clear,360,2013-02-22 06:55:00
2:15 AM,35.1,19.0,52,30.35,10.0,NNW,3.5,-,N/A,,Scattered Clouds,330,2013-02-22 07:15:00
2:35 AM,35.1,18.7,51,30.37,10.0,North,4.6,-,N/A,,Scattered Clouds,350,2013-02-22 07:35:00
2:55 AM,35.1,18.9,52,30.36,10.0,Calm,Calm,-,N/A,,Scattered Clouds,0,2013-02-22 07:55:00
3:15 AM,35.1,19.2,53,30.35,10.0,Calm,Calm,-,N/A,,Scattered Clouds,0,2013-02-22 08:15:00
3:35 AM,35.1,19.0,52,30.35,10.0,Calm,Calm,-,N/A,,Mostly Cloudy,0,2013-02-22 08:35:00
3:55 AM,35.1,19.2,53,30.35,10.0,North,4.6,-,N/A,,Scattered Clouds,360,2013-02-22 08:55:00
4:15 AM,35.1,19.2,53,30.35,10.0,North,3.5,-,N/A,,Scattered Clouds,360,2013-02-22 09:15:00
4:35 AM,35.1,19.6,53,30.36,10.0,Calm,Calm,-,N/A,,Scattered Clouds,0,2013-02-22 09:35:00
4:55 AM,35.1,19.8,54,30.37,10.0,Calm,Calm,-,N/A,,Scattered Clouds,0,2013-02-22 09:55:00
5:15 AM,35.1,20.7,56,30.37,10.0,North,4.6,-,N/A,,Scattered Clouds,10,2013-02-22 10:15:00
5:35 AM,35.1,20.1,55,30.35,10.0,NNE,6.9,-,N/A,,Overcast,20,2013-02-22 10:35:00
5:55 AM,33.4,19.2,56,30.34,10.0,NE,3.5,-,N/A,Snow,Light Snow,50,2013-02-22 10:55:00
6:15 AM,32.5,20.8,62,30.32,10.0,ENE,3.5,-,N/A,Rain,Light Rain,60,2013-02-22 11:15:00
6:35 AM,32.5,23.2,68,30.30,10.0,Calm,Calm,-,N/A,Rain,Light Rain,0,2013-02-22 11:35:00
7:15 AM,32.5,24.6,73,30.30,10.0,NE,4.6,-,N/A,,Overcast,40,2013-02-22 12:15:00
7:35 AM,32.5,24.3,72,30.31,10.0,NNE,4.6,-,N/A,,Overcast,30,2013-02-22 12:35:00
7:55 AM,32.5,22.8,67,30.33,10.0,North,4.6,-,N/A,,Overcast,10,2013-02-22 12:55:00
8:15 AM,32.9,22.3,65,30.32,10.0,NE,5.8,-,N/A,,Overcast,40,2013-02-22 13:15:00
8:35 AM,33.8,22.6,64,30.31,10.0,NE,9.2,-,N/A,,Mostly Cloudy,40,2013-02-22 13:35:00
8:55 AM,35.1,24.1,64,30.34,10.0,Calm,Calm,-,N/A,,Overcast,0,2013-02-22 13:55:00
9:15 AM,35.1,23.0,61,30.35,10.0,East,3.5,-,N/A,,Overcast,80,2013-02-22 14:15:00
9:35 AM,35.1,23.0,61,30.35,10.0,Calm,Calm,-,N/A,,Overcast,0,2013-02-22 14:35:00
9:55 AM,35.1,22.6,61,30.35,10.0,East,3.5,-,N/A,,Overcast,80,2013-02-22 14:55:00
10:15 AM,35.1,22.8,61,30.36,10.0,Calm,Calm,-,N/A,,Overcast,0,2013-02-22 15:15:00
10:35 AM,35.2,23.0,61,30.35,10.0,East,3.5,-,N/A,,Mostly Cloudy,100,2013-02-22 15:35:00
10:55 AM,36.5,23.9,60,30.35,10.0,SE,3.5,-,N/A,,Mostly Cloudy,130,2013-02-22 15:55:00
11:15 AM,36.5,24.1,61,30.34,10.0,ESE,4.6,-,N/A,,Mostly Cloudy,120,2013-02-22 16:15:00
11:35 AM,37.9,24.8,59,30.33,10.0,SE,6.9,-,N/A,,Mostly Cloudy,140,2013-02-22 16:35:00
11:55 AM,38.3,24.4,57,30.33,10.0,SE,5.8,-,N/A,,Mostly Cloudy,130,2013-02-22 16:55:00
12:15 PM,38.7,24.8,58,30.32,10.0,ESE,3.5,-,N/A,,Mostly Cloudy,120,2013-02-22 17:15:00
12:35 PM,39.2,25.0,57,30.31,10.0,SE,5.8,-,N/A,,Scattered Clouds,130,2013-02-22 17:35:00
12:55 PM,39.6,25.3,57,30.30,10.0,Calm,Calm,-,N/A,,Scattered Clouds,0,2013-02-22 17:55:00
1:15 PM,41.7,26.4,55,30.30,10.0,ESE,5.8,-,N/A,,Mostly Cloudy,110,2013-02-22 18:15:00
1:35 PM,41.9,26.1,53,30.29,10.0,Calm,Calm,-,N/A,,Overcast,0,2013-02-22 18:35:00
1:55 PM,42.8,26.8,53,30.28,10.0,Calm,Calm,-,N/A,,Overcast,0,2013-02-22 18:55:00
2:15 PM,42.8,26.6,53,30.27,10.0,ESE,3.5,-,N/A,,Overcast,120,2013-02-22 19:15:00
2:35 PM,42.8,26.8,53,30.27,10.0,East,3.5,-,N/A,,Overcast,90,2013-02-22 19:35:00
2:55 PM,42.8,26.8,53,30.25,10.0,Calm,Calm,-,N/A,,Overcast,0,2013-02-22 19:55:00
3:15 PM,42.8,27.7,55,30.25,10.0,East,4.6,-,N/A,,Overcast,80,2013-02-22 20:15:00
3:35 PM,42.8,28.2,56,30.26,10.0,Calm,Calm,-,N/A,,Overcast,0,2013-02-22 20:35:00
3:55 PM,42.8,28.4,57,30.25,10.0,Calm,Calm,-,N/A,,Overcast,0,2013-02-22 20:55:00
4:15 PM,42.8,29.1,58,30.25,10.0,East,3.5,-,N/A,,Overcast,80,2013-02-22 21:15:00
4:35 PM,42.8,29.7,60,30.26,10.0,Calm,Calm,-,N/A,,Overcast,0,2013-02-22 21:35:00
4:55 PM,42.8,31.6,65,30.25,10.0,Calm,Calm,-,N/A,Rain,Light Rain,0,2013-02-22 21:55:00
5:15 PM,40.1,32.2,73,30.25,10.0,Calm,Calm,-,N/A,,Overcast,0,2013-02-22 22:15:00
5:35 PM,40.1,33.1,76,30.24,10.0,Calm,Calm,-,N/A,,Overcast,0,2013-02-22 22:35:00
5:55 PM,40.1,33.8,78,30.23,10.0,Calm,Calm,-,N/A,,Overcast,0,2013-02-22 22:55:00
6:15 PM,40.1,34.5,80,30.24,10.0,Calm,Calm,-,N/A,Rain,Heavy Rain,0,2013-02-22 23:15:00
6:35 PM,38.8,34.5,84,30.24,10.0,Calm,Calm,-,0.01,Rain,Rain,0,2013-02-22 23:35:00
6:55 PM,38.8,35.1,86,30.22,10.0,NNE,4.6,-,0.01,Rain,Rain,20,2013-02-22 23:55:00
7:15 PM,38.3,35.2,89,30.21,3.0,NE,3.5,-,0.03,Rain,Rain,50,2013-02-23 00:15:00
7:35 PM,38.3,35.2,89,30.21,10.0,Calm,Calm,-,0.04,Rain,Light Rain,0,2013-02-23 00:35:00
7:55 PM,38.3,35.6,90,30.19,10.0,East,3.5,-,0.04,,Overcast,100,2013-02-23 00:55:00
8:15 PM,38.8,36.0,89,30.20,10.0,NNE,3.5,-,N/A,,Overcast,20,2013-02-23 01:15:00
8:35 PM,38.8,36.1,90,30.20,10.0,NNE,4.6,-,N/A,,Overcast,20,2013-02-23 01:35:00
8:55 PM,38.8,36.3,91,30.21,10.0,NNW,3.5,-,N/A,Rain,Light Rain,330,2013-02-23 01:55:00
9:15 PM,38.8,36.5,91,30.21,7.0,NNE,5.8,-,0.01,Rain,Rain,20,2013-02-23 02:15:00
9:35 PM,38.5,36.3,92,30.21,7.0,NNE,3.5,-,0.01,,Drizzle,20,2013-02-23 02:35:00
9:55 PM,38.3,35.8,91,30.20,4.0,Calm,Calm,-,0.02,Rain,Rain,0,2013-02-23 02:55:00
10:15 PM,38.5,36.0,91,30.19,4.0,East,3.5,-,0.01,,Drizzle,80,2013-02-23 03:15:00
10:35 PM,38.3,36.1,92,30.17,5.0,ESE,3.5,-,0.01,,Light Drizzle,110,2013-02-23 03:35:00
10:55 PM,38.8,36.7,92,30.17,7.0,Calm,Calm,-,0.01,,Light Drizzle,0,2013-02-23 03:55:00
11:15 PM,38.8,36.7,92,30.18,5.0,North,4.6,-,N/A,,Light Drizzle,360,2013-02-23 04:15:00
11:35 PM,38.8,36.7,92,30.17,4.0,North,5.8,-,N/A,,Light Drizzle,360,2013-02-23 04:35:00
11:55 PM,38.8,36.7,92,30.16,3.0,North,5.8,-,N/A,Rain,Light Rain,10,2013-02-23 04:55:00